PATHFINDER 1

Last updated on Thu Jul 03 2025 00:02:30 GMT+0000 (Coordinated Universal Time)

1 41787U 16059E 25183.58314806 .00000464 00000+0 90809-4 0 9995 2 41787 97.8123 193.9281 0027493 239.2044 120.6454 14.66954488468444
UTC large
Height (km)
Speed (km/s)
/
Latitude / Longitude
Inclination (degrees)
Orbital Period (minutes)
Azimuth
Elevation
Range (km)
Doppler Factor

Next 0 passes for location: London (51.5072 / 0.1276)

Sorry there are no passes over London.